Home > Weather > Grenoble > Past weeks

Flag for France Past Weather in Grenoble, Rhône-Alpes, France — Yesterday and Last 2 Weeks

Now
46 °F

Clear.


Feels Like: 45 °F
Forecast: 43 / 77 °F
Wind: 3 mph from Southeast

Location: Grenoble / St. Geoirs

Current Time: May 24, 2016 at 11:40:55 PM

Latest Report: May 24, 2016 at 11:00 PM


Visibility: 10 mi

Pressure: 29.95 "Hg

Humidity: 93%

Dew Point: 45 °F

Location of GrenobleLocation

Past Weather in Grenoble — Graph

°F

Grenoble Temperature Yesterday

Maximum temperature yesterday: 52 °F (at 11:00 AM)
Minimum temperature yesterday: 46 °F (at 1:30 AM)
Average temperature yesterday: 48 °F

High & Low Weather Summary for the Past Weeks

 TemperatureHumidityPressure
High79 °F (May 21, 3:00 PM)100% (May 10, 2:00 AM)30.21 "Hg (May 10, 2:00 AM)
Low34 °F (May 16, 6:00 AM)37% (May 21, 3:00 PM)29.56 "Hg (May 11, 6:30 PM)
Average55 °F79%29.94 "Hg
* Reported May 9 10:00 PM — May 24 10:30 PM, Grenoble, Weather by CustomWeather, © 2016

Note: Actual official high and low records may vary slightly from our data, if they occured in-between our weather recording intervals... More about our weather records

Advertising

Grenoble Weather History for the Previous 24 Hours

Scroll right to see more
 ConditionsComfort  
Time TempWeatherWind HumidityBarometerVisibility
10:30 PM
Tue, May 24
48 °FPassing clouds.2 mph87%29.95 "HgN/A
10:00 PM50 °FSunny.No wind82%29.95 "Hg10 mi
9:30 PM52 °FPassing clouds.3 mph82%29.92 "HgN/A
9:00 PM55 °FSunny.5 mph72%29.92 "Hg10 mi
8:30 PM55 °FPassing clouds.5 mph77%29.92 "HgN/A
8:00 PM57 °FPassing clouds.6 mph72%29.92 "HgN/A
7:30 PM59 °FPassing clouds.6 mph63%29.92 "HgN/A
7:00 PM59 °FPassing clouds.8 mph68%29.92 "HgN/A
6:30 PM59 °FPartly sunny.8 mph68%29.95 "HgN/A
6:00 PM59 °FOvercast.8 mph68%29.95 "HgN/A
5:30 PM61 °FMostly cloudy.7 mph63%29.95 "HgN/A
5:00 PM61 °FOvercast.9 mph59%29.95 "HgN/A
4:30 PM59 °FBroken clouds.10 mph68%29.95 "HgN/A
4:00 PM57 °FMostly cloudy.6 mph72%29.98 "HgN/A
3:30 PM55 °FMostly cloudy.7 mph72%29.98 "HgN/A
3:00 PM55 °FOvercast.8 mph72%29.98 "HgN/A
2:30 PM55 °FOvercast.8 mph72%29.98 "HgN/A
2:00 PM55 °FMostly cloudy.10 mph77%29.98 "HgN/A
1:30 PM54 °FMore clouds than sun.9 mph77%30.01 "HgN/A
1:00 PM55 °FMore clouds than sun.10 mph77%30.01 "HgN/A
12:30 PM55 °FMostly cloudy.12 mph72%30.01 "HgN/A
12:00 PM54 °FBroken clouds.12 mph82%30.01 "HgN/A
11:30 AM55 °FCloudy.10 mph77%30.01 "HgN/A
11:00 AM54 °FBroken clouds.10 mph82%30.04 "HgN/A
10:30 AM54 °FMostly cloudy.9 mph82%30.04 "HgN/A
10:00 AM52 °FBroken clouds.8 mph88%30.04 "HgN/A
9:30 AM50 °FMostly cloudy.8 mph88%30.04 "HgN/A
9:00 AM52 °FMostly cloudy.6 mph88%30.04 "HgN/A
8:30 AM50 °FMostly cloudy.7 mph88%30.04 "HgN/A
8:00 AM50 °FMostly cloudy.6 mph88%30.04 "HgN/A
7:30 AM50 °FMostly cloudy.5 mph88%30.04 "HgN/A
7:00 AM48 °FLow clouds.3 mph100%30.04 "HgN/A
6:30 AM48 °FLow clouds.5 mph94%30.07 "HgN/A
6:00 AM48 °FLow clouds.5 mph94%30.07 "HgN/A
5:30 AM48 °FLow clouds.3 mph94%30.07 "HgN/A
5:00 AM48 °FMostly cloudy.3 mph94%30.07 "HgN/A
4:30 AM48 °FMostly cloudy.5 mph94%30.07 "HgN/A
4:00 AM48 °FOvercast.1 mph94%30.07 "HgN/A
3:30 AM48 °FMostly cloudy.No wind94%30.09 "HgN/A
3:00 AM48 °FMostly cloudy.2 mph94%30.09 "Hg4 mi
2:30 AM48 °FLow clouds.2 mph94%30.09 "HgN/A
2:00 AM48 °FMostly cloudy.2 mph94%30.09 "HgN/A
1:30 AM48 °FMostly cloudy.2 mph94%30.09 "HgN/A
1:00 AM48 °FMostly cloudy.1 mph94%30.09 "HgN/A
12:30 AM48 °FLight rain. Mostly cloudy.3 mph94%30.12 "Hg5 mi
12:00 AM48 °FLow clouds.No wind94%30.12 "HgN/A
11:30 PM
Mon, May 23
48 °FMostly cloudy.No wind94%30.12 "HgN/A
11:00 PM48 °FMostly cloudy.2 mph94%30.12 "HgN/A
Weather by CustomWeather, © 2016

See weather overviewHow to use our weather pages